{"data":{"norad_id":66630,"intl_designator":"2025-271P","name":"STARLINK-35949","alt_names":[],"object_type":"PAYLOAD","status":"ACTIVE","operator":null,"country":"US","launch_date":"2025-11-23","launch_site_code":"AFWTR","launch_vehicle":null,"mission":null,"orbit_class":"UNKNOWN","rcs_meters":null,"size_class":null,"mass_kg":null,"dimensions":null,"purposes":["comms"],"wikipedia_slug":null,"has_3d_model":false,"image_url":null,"decayed_at":null,"tle_current":{"epoch":"2026-09-20T09:59:01.117824Z","epoch_age_seconds":94173,"freshness":"FRESH","line1":"1 66630U 25271P   26263.41598516  .00018768  00000+0  56528-3 0  9994","line2":"2 66630  53.1582 310.2337 0001280  86.2079 273.9070 15.34395304 47454","mean_motion":15.34395304,"eccentricity":0.000128,"inclination_deg":53.1582,"raan_deg":310.2337,"arg_perigee_deg":86.2079,"mean_anomaly_deg":273.907,"bstar":0.00056528,"rev_number":4745,"period_min":93.848045301369,"perigee_km":461.84156840703,"apogee_km":463.59282708165,"semimajor_km":6840.8541977443,"source":"CELESTRAK","updated_at":"2026-09-21T09:00:35.984600Z"}}}